sat.trackr.live / text

‹ back to catalog

STARLINK-11408 [DTC]

NORAD 63064 · 2025-035N

PAYLOAD ACTIVE UNKNOWN

§ Identity

Operator
Country
US
Launch date
2025-02-21
Launch site
AFETR
Launch vehicle
Mass (kg)
RCS (m²)

Purposes: comms

External: N2YO · Heavens-Above · Gunter

§ Orbital elements

Epoch: 2026-05-24T17:26:52.069920Z

Period
91.67 min
Inclination
42.9998°
Eccentricity
0.0001769
Mean motion
15.70859309 rev/d
Perigee alt
355.2 km
Apogee alt
357.6 km
Semi-major
6,734.6 km
B*
8.9522e-4
RAAN
276.6396°
Arg perigee
286.2332°
Mean anomaly
73.8341°
Rev number
7,318

§ Raw data

STARLINK-11408 [DTC]1 63064U 25035N   26144.72699155  .00116134  00000+0  89522-3 0  99992 63064  42.9998 276.6396 0001769 286.2332  73.8341 15.70859309 73182

JSON: /api/v1/satellites/63064 · /tle

For live sub-satellite position, see the globe view (requires WebGL).

§ Visibility from observer

Set your observer location to see the next 7 days of passes ≥ 10°. The values pass through the URL so the page stays shareable.

No JS? Fill the form by hand. The geolocation button needs JavaScript.